Regional Weather Roundup
Issued by NWS

Home | Current Version | Previous Version | Text Only | Print | Product List | Glossary Off
Versions: 1 2 3 4 5 6 7 8 9 10 11 12 13 14 15 16 17 18 19 20 21 22 23 24 25 26 27 28 29 30 31 32 33 34 35 36 37 38 39 40 41 42 43 44 45 46 47 48 49 50

000
ASUS43 KLSX 022359
RWRMO

WEATHER SUMMARY FOR MISSOURI
NATIONAL WEATHER SERVICE SPRINGFIELD MO
700 PM CDT TUE JUN 02 2015

NOTE: "FAIR" INDICATES FEW OR NO CLOUDS BELOW 12,000 FEET WITH NO
       SIGNIFICANT WEATHER AND/OR OBSTRUCTIONS TO VISIBILITY.
       CURRENT SKY AND/OR WEATHER CONDITIONS ARE NOT AVAILABLE FOR
       CHILLICOTHE AND FARMINGTON.

MOZ001>031-035>038-043-044-053-054-030100-
...NORTHERN AND WESTERN MISSOURI...

CITY           SKY/WX    TMP DP  RH WIND       PRES   REMARKS
KANSAS CTY INT CLOUDY    71  60  68 SE13G22   29.95F
6HR MIN TEMP:  68; 6HR MAX TEMP:  74; 6HR PCP: TRACE;

KANSAS C DTWN  PTSUNNY   74  59  59 E10       29.94F
6HR MIN TEMP:  70; 6HR MAX TEMP:  76;

LEE`S SUMMIT   PTSUNNY   72  59  63 E9        29.97F
6HR MIN TEMP:  70; 6HR MAX TEMP:  74;

ST JOSEPH      LGT RAIN  70  59  68 SE14      29.96S
6HR MIN TEMP:  70; 6HR MAX TEMP:  73; 6HR PCP: TRACE;

CHILLICOTHE      N/A     71  57  61 SE8       30.01F
6HR MIN TEMP:  66; 6HR MAX TEMP:  73;

KIRKSVILLE     MOSUNNY   68  56  65 SE14      30.04F
6HR MIN TEMP:  67; 6HR MAX TEMP:  70;


$$
MOZ066>068-077>081-088>096-101>105-030100-
...SOUTHWEST MISSOURI...

CITY           SKY/WX    TMP DP  RH WIND       PRES   REMARKS
SPRINGFIELD    FAIR      75  59  57 SE6       29.99F
6HR MIN TEMP:  68; 6HR MAX TEMP:  75;

JOPLIN         MOSUNNY   79  67  66 VRB5      29.96S
6HR MIN TEMP:  76; 6HR MAX TEMP:  82;


$$
MOZ032>034-039>042-045>050-055>058-069>072-030100-
...CENTRAL MISSOURI...

CITY           SKY/WX    TMP DP  RH WIND       PRES   REMARKS
COLUMBIA       CLOUDY    67  57  70 SE7       30.04F
6HR MIN TEMP:  67; 6HR MAX TEMP:  70;

JEFFERSON CITY CLOUDY    68  56  65 SE7       30.04S
6HR MIN TEMP:  67; 6HR MAX TEMP:  69;

ROLLA          CLOUDY    64  56  75 SE5       30.04F
6HR MIN TEMP:  63; 6HR MAX TEMP:  66;

SEDALIA        SUNNY     71  57  61 E12       30.01F
6HR MIN TEMP:  69; 6HR MAX TEMP:  73;

OSAGE BEACH    SUNNY     70  55  60 E8        30.02F

$$
MOZ051-052-059>065-030100-
...EAST CENTRAL MISSOURI...

CITY           SKY/WX    TMP DP  RH WIND       PRES   REMARKS
ST LOUIS INTL  MOSUNNY   72  56  57 SE6       30.04S
6HR MIN TEMP:  70; 6HR MAX TEMP:  74;

SPIRIT OF STL  PTSUNNY   71  58  63 CALM      30.03S
6HR MIN TEMP:  69; 6HR MAX TEMP:  73;

ST CHARLES     MOSUNNY   72  56  57 SE5       30.03S
6HR MIN TEMP:  69; 6HR MAX TEMP:  74;


$$
MOZ072>076-082>087-097>100-106>115-030100-
...SOUTH CENTRAL AND SOUTHEAST MISSOURI...

CITY           SKY/WX    TMP DP  RH WIND       PRES   REMARKS
CAPE GIRARDEAU CLOUDY    64  59  83 NE7       30.04S
6HR MIN TEMP:  64; 6HR MAX TEMP:  66;

FARMINGTON     CLOUDY    63  55  77 SE5       30.09S
6HR MIN TEMP:  61; 6HR MAX TEMP:  64;

POPLAR BLUFF   CLOUDY    65  56  72 NW6       30.04R
6HR MIN TEMP:  64; 6HR MAX TEMP:  65;

WEST PLAINS    SUNNY     70  57  63 SE6       30.04S
6HR MIN TEMP:  67; 6HR MAX TEMP:  73;


$$


USA.gov is the U.S. government's official web portal to all federal, state and local government web resources and services.